Main page
METAR-TAF:

METAR-TAF

Airports :

Pontianak, Indonesia

Supadio International Airport

latitude: 00-09S, longitude: 109-24E, elevation: 3 m

Current weather observation

The report was made 32 minutes ago, at 08:30 UTC
Wind 14 kt from the West
Temperature 28°C
Humidity 84%
Pressure 1008 hPa
Visibility 10 km or more
Few clouds at a height of 1000 ft, Cumulonimbus.
Broken clouds at a height of 1100 ft

METAR: WIOO 270830Z 26014KT 9999 FEW010CB BKN011 28/25 Q1008 NOSIG

Time: 16:02 (09:02 UTC)


TAF: missing

Weather observations and forecasts of more than 4000 airports (METAR and TAF reports).

The available stations are represented by yellow and red dots on the map.

Hover mouse over dot to see the name of the station.

Then click to see weather observations and forecasts.

To change the map : click on the green buttons with a black cross to zoom in, on the green button with a dash to zoom out, or on the green arrows for adjacent maps.


METAR-TAF: